星链-32504 (STARLINK-32504)

导读

STARLINK-32504是美国SpaceX公司于2024年11月18日发射的星链系列低轨互联网卫星,隶属于第二代星链星座组网计划。星链卫星系统旨在为全球偏远、网络基础设施不完善区域提供高速低延迟互联网接入服务,下载速度通常可达50-200Mbps,延迟仅25-50ms,远优于传统卫星互联网,可支撑远程办公、远程教育等场景需求。该卫星入轨后将参与星链星座扩容,进一步完善全球覆盖网络,目前已作为在轨卫星纳入星链参数数据库,可为卫星轨道分析与仿真研究提供数据支撑。

Basic Information
目录编号:
62024
目录名称:
STARLINK-32504
国际标识:
2024-213S
轨道中心:
EARTH
卫星名称:
星链-32504
卫星全名:
星链-32504 (STARLINK-32504)
卫星状态:
在轨 (已飞行655 天)
发射日期:
2024-11-18 UTC
国别 :
美国 (US)
星等 :
--
Orbit Information
数据来源 国际轨道数据 AOE轨道数据
星历时间 2026-09-03T20:08:43+0800
19小时前
查看轨道信息
2026-09-01T12:00:00+0800
3天前
查看轨道信息
半长轴 6840.828km 6840.838km
偏心率 0.0000916 0.0001063
轨道倾角 53.160° 53.155°
近地点辐角 86.654° 87.372°
升交点赤经 61.174° 72.111°
平近点角 273.457° 303.182°
近地点 462.064km 461.973km
远地点 463.318km 463.429km
周期 93.847分钟 93.848分钟
每日圈数 15.344043 15.344009
Detailed Information
固有亮度:
5
最大亮度:
2.5
卫星平台:
Starlink V1.0
覆盖范围:
全球
运营商:
太空探索技术公司
运营商所在国:
美国
制造商(研发单位):
太空探索技术公司
制造商所在国:
美国
使用方式:
暂无
Satellite Introduction
Starlink 计划是 SpaceX 推出的全球卫星互联网项目,通过发射低轨道卫星,为全球尤其是偏远地区提供高速、低延迟的互联网服务。自 2019 年起,Starlink 已部署数千颗卫星,旨在缩小全球数字鸿沟,推动互联网普及。该项目还为军事、航空等行业提供通信支持,带来广泛经济效益。
2D Orbit Map
3D Orbit Map
Orbit Altitude Analysis Chart
Orbit Inclination Analysis Chart
Orbit Comprehensive Analysis Chart
View Comprehensive Chart
Conjunction Data List
Event ID Objects TCA Miss Dist (km) Collision Risk Probability Collision Risk Index (CRI) Action
CDM_260905-135006-044706-202421
2026-09-05T
13:50:14+0000
0.471 km
远距离
1.214541E-4 高风险 0.77
CDM_260905-121906-202406-607921
2026-09-05T
12:19:28+0000
1.502 km
极远距离
4.278641E-6 低风险 0.48
CDM_260905-083705-383006-202421
2026-09-05T
08:37:03+0000
2.815 km
极远距离
1.288589E-6 低风险 0.37
CDM_260905-152406-044706-202421
2026-09-05T
15:24:02+0000
2.698 km
极远距离
8.119271E-7 极低风险 0.33
CDM_260901-160205-937706-202421
2026-09-01T
16:02:08+0000
2.937 km
极远距离
6.801535E-7 极低风险 0.32
CDM_260827-215005-270506-202421
2026-08-27T
21:50:31+0000
2.382 km
极远距离
5.86946E-7 极低风险 0.3